| time (UTC) | temp C | wind direction | speed KPH | gust KPH | rain 1hr cm | rain 24hr cm | rain mn cm | humidity % | barometer mb |
| 20260505004338 | 14 | 53 | 3.2 | 8.0 | 0.00 | 0.00 | 0.00 | 55 | 1010.2 |
| 20260505003835 | 13 | 59 | 3.2 | 6.4 | 0.00 | 0.00 | 0.00 | 53 | 1010.2 |
| 20260505003333 | 13 | 33 | 3.2 | 4.8 | 0.00 | 0.00 | 0.00 | 58 | 1010.1 |
| 20260505002828 | 13 | 34 | 3.2 | 4.8 | 0.00 | 0.00 | 0.00 | 57 | 1010.2 |
| 20260505002325 | 13 | 118 | 1.6 | 3.2 | 0.00 | 0.00 | 0.00 | 59 | 1010.0 |
| 20260505001824 | 13 | 180 | 0.0 | 3.2 | 0.00 | 0.00 | 0.00 | 59 | 1010.0 |
| 20260505001320 | 13 | 306 | 0.0 | 8.0 | 0.00 | 0.00 | 0.00 | 59 | 1010.1 |
| 20260505000818 | 13 | 249 | 4.8 | 14.5 | 0.00 | 0.00 | 0.00 | 58 | 1010.3 |
| 20260505000316 | 13 | 252 | 4.8 | 11.3 | 0.05 | 0.00 | 0.00 | 59 | 1010.3 |
| 20260504235812 | 14 | 300 | 4.8 | 4.8 | 0.05 | 0.00 | 0.00 | 56 | 1010.1 |
| 20260504235309 | 14 | 109 | 1.6 | 9.7 | 0.00 | 0.00 | 0.00 | 55 | 1010.1 |
| 20260504234806 | 13 | 247 | 4.8 | 11.3 | 0.00 | 0.00 | 0.00 | 59 | 1010.3 |
| 20260504234304 | 13 | 275 | 3.2 | 17.7 | 0.00 | 0.00 | 0.00 | 61 | 1010.2 |
| 20260504233759 | 15 | 248 | 8.0 | 14.5 | 0.00 | 0.00 | 0.00 | 52 | 1010.0 |
| 20260504233255 | 16 | 232 | 4.8 | 14.5 | 0.00 | 0.00 | 0.00 | 45 | 1010.0 |
| 20260504232752 | 16 | 218 | 6.4 | 8.0 | 0.00 | 0.00 | 0.00 | 42 | 1010.0 |
| 20260504232249 | 17 | 234 | 4.8 | 9.7 | 0.00 | 0.00 | 0.00 | 37 | 1010.0 |
| 20260504231746 | 17 | 248 | 3.2 | 9.7 | 0.00 | 0.00 | 0.00 | 37 | 1009.6 |
| 20260504231243 | 17 | 249 | 6.4 | 9.7 | 0.00 | 0.00 | 0.00 | 37 | 1009.3 |
| 20260504230738 | 17 | 231 | 0.0 | 4.8 | 0.00 | 0.00 | 0.00 | 38 | 1009.0 |
| 20260504230237 | 17 | 235 | 0.0 | 4.8 | 0.00 | 0.00 | 0.00 | 40 | 1009.0 |
| 20260504225736 | 17 | 350 | 0.0 | 6.4 | 0.00 | 0.00 | 0.00 | 39 | 1008.5 |
| 20260504225231 | 17 | 217 | 0.0 | 4.8 | 0.00 | 0.00 | 0.00 | 35 | 1008.5 |
| 20260504224729 | 18 | 300 | 0.0 | 4.8 | 0.00 | 0.00 | 0.00 | 35 | 1008.7 |
| 20260504224226 | 18 | 253 | 1.6 | 4.8 | 0.00 | 0.00 | 0.00 | 35 | 1008.6 |
| 20260504223722 | 18 | 82 | 3.2 | 6.4 | 0.00 | 0.00 | 0.00 | 35 | 1008.7 |
| 20260504223218 | 18 | 6 | 3.2 | 9.7 | 0.00 | 0.00 | 0.00 | 34 | 1008.7 |
| 20260504222715 | 18 | 242 | 3.2 | 4.8 | 0.00 | 0.00 | 0.00 | 34 | 1008.7 |
| 20260504222212 | 18 | 316 | 0.0 | 6.4 | 0.00 | 0.00 | 0.00 | 34 | 1008.5 |
| 20260504221709 | 18 | 88 | 6.4 | 8.0 | 0.00 | 0.00 | 0.00 | 33 | 1008.7 |
| 20260504221206 | 18 | 271 | 0.0 | 4.8 | 0.00 | 0.00 | 0.00 | 33 | 1008.7 |
| 20260504220703 | 19 | 91 | 3.2 | 6.4 | 0.00 | 0.00 | 0.00 | 33 | 1008.6 |
| 20260504220200 | 19 | 194 | 4.8 | 4.8 | 0.00 | 0.00 | 0.00 | 33 | 1008.7 |
| 20260504215656 | 18 | 51 | 1.6 | 9.7 | 0.00 | 0.00 | 0.00 | 33 | 1009.1 |
| 20260504215154 | 19 | 138 | 3.2 | 8.0 | 0.00 | 0.00 | 0.00 | 34 | 1009.1 |
| 20260504214649 | 18 | 264 | 3.2 | 4.8 | 0.00 | 0.00 | 0.00 | 34 | 1009.3 |
| 20260504214146 | 18 | 332 | 3.2 | 6.4 | 0.00 | 0.00 | 0.00 | 35 | 1009.5 |
| 20260504213643 | 18 | 291 | 4.8 | 8.0 | 0.00 | 0.00 | 0.00 | 35 | 1009.6 |
| 20260504213139 | 18 | 263 | 4.8 | 11.3 | 0.00 | 0.00 | 0.00 | 35 | 1009.6 |
| 20260504212636 | 17 | 329 | 3.2 | 16.1 | 0.00 | 0.00 | 0.00 | 34 | 1009.6 |
| 20260504212133 | 18 | 257 | 3.2 | 9.7 | 0.00 | 0.00 | 0.00 | 33 | 1009.6 |
| 20260504211631 | 18 | 10 | 3.2 | 9.7 | 0.00 | 0.00 | 0.00 | 32 | 1009.8 |
| 20260504211126 | 18 | 83 | 3.2 | 11.3 | 0.00 | 0.00 | 0.00 | 31 | 1009.5 |
| 20260504210625 | 18 | 39 | 3.2 | 9.7 | 0.00 | 0.00 | 0.00 | 32 | 1009.6 |
| 20260504210120 | 18 | 66 | 4.8 | 11.3 | 0.00 | 0.00 | 0.00 | 31 | 1009.1 |
| 20260504205618 | 19 | 134 | 4.8 | 9.7 | 0.00 | 0.00 | 0.00 | 31 | 1009.1 |
| 20260504205116 | 20 | 17 | 9.7 | 17.7 | 0.00 | 0.00 | 0.00 | 30 | 1008.8 |
| 20260504204614 | 20 | 136 | 6.4 | 19.3 | 0.00 | 0.00 | 0.00 | 29 | 1008.7 |
| 20260504204113 | 21 | 42 | 9.7 | 19.3 | 0.00 | 0.00 | 0.00 | 28 | 1008.7 |
| 20260504203611 | 21 | 45 | 4.8 | 22.5 | 0.00 | 0.00 | 0.00 | 29 | 1008.6 |
| 20260504203108 | 21 | 44 | 12.9 | 22.5 | 0.00 | 0.00 | 0.00 | 28 | 1008.8 |
| 20260504202603 | 21 | 75 | 8.0 | 27.4 | 0.00 | 0.00 | 0.00 | 28 | 1008.6 |
| 20260504202100 | 21 | 209 | 4.8 | 16.1 | 0.00 | 0.00 | 0.00 | 28 | 1009.0 |
| 20260504201556 | 21 | 29 | 8.0 | 24.1 | 0.00 | 0.00 | 0.00 | 27 | 1008.8 |
| 20260504201055 | 21 | 352 | 9.7 | 24.1 | 0.00 | 0.00 | 0.00 | 27 | 1008.7 |
| 20260504200550 | 20 | 321 | 4.8 | 12.9 | 0.00 | 0.00 | 0.00 | 28 | 1009.0 |
| 20260504200048 | 20 | 289 | 6.4 | 8.0 | 0.00 | 0.00 | 0.00 | 26 | 1008.6 |
| 20260504195544 | 20 | 295 | 9.7 | 19.3 | 0.00 | 0.00 | 0.00 | 27 | 1008.6 |
| 20260504195040 | 20 | 357 | 9.7 | 12.9 | 0.00 | 0.00 | 0.00 | 28 | 1008.6 |
| 20260504194537 | 20 | 70 | 9.7 | 22.5 | 0.00 | 0.00 | 0.00 | 28 | 1008.5 |
| 20260504194032 | 21 | 65 | 6.4 | 17.7 | 0.00 | 0.00 | 0.00 | 25 | 1008.4 |
| 20260504193529 | 21 | 82 | 8.0 | 11.3 | 0.00 | 0.00 | 0.00 | 23 | 1008.1 |
| 20260504193028 | 21 | 72 | 4.8 | 12.9 | 0.00 | 0.00 | 0.00 | 23 | 1008.0 |
| 20260504192526 | 22 | 242 | 3.2 | 22.5 | 0.00 | 0.00 | 0.00 | 23 | 1008.3 |
| 20260504192024 | 22 | 286 | 3.2 | 30.6 | 0.00 | 0.00 | 0.00 | 24 | 1007.9 |
| 20260504191521 | 22 | 81 | 3.2 | 16.1 | 0.00 | 0.00 | 0.00 | 22 | 1008.0 |
| 20260504191017 | 22 | 233 | 6.4 | 16.1 | 0.00 | 0.00 | 0.00 | 21 | 1008.0 |
| 20260504190514 | 22 | 247 | 11.3 | 29.0 | 0.00 | 0.00 | 0.00 | 25 | 1007.8 |
| 20260504190010 | 22 | 244 | 6.4 | 22.5 | 0.00 | 0.00 | 0.00 | 25 | 1008.0 |
| 20260504185507 | 22 | 249 | 6.4 | 20.9 | 0.00 | 0.00 | 0.00 | 25 | 1008.0 |
| 20260504185003 | 22 | 242 | 8.0 | 19.3 | 0.00 | 0.00 | 0.00 | 24 | 1007.7 |
| 20260504184459 | 22 | 262 | 16.1 | 20.9 | 0.00 | 0.00 | 0.00 | 24 | 1007.8 |
| 20260504183954 | 22 | 253 | 4.8 | 12.9 | 0.00 | 0.00 | 0.00 | 26 | 1007.9 |
| 20260504183452 | 22 | 328 | 3.2 | 27.4 | 0.00 | 0.00 | 0.00 | 25 | 1007.9 |
| 20260504182950 | 22 | 225 | 0.0 | 14.5 | 0.00 | 0.00 | 0.00 | 25 | 1008.0 |
| 20260504182446 | 22 | 276 | 14.5 | 20.9 | 0.00 | 0.00 | 0.00 | 25 | 1008.3 |
| 20260504181944 | 21 | 245 | 6.4 | 20.9 | 0.00 | 0.00 | 0.00 | 25 | 1008.0 |
| 20260504181441 | 21 | 253 | 16.1 | 24.1 | 0.00 | 0.00 | 0.00 | 26 | 1008.3 |
| 20260504180939 | 21 | 250 | 14.5 | 25.7 | 0.00 | 0.00 | 0.00 | 25 | 1008.1 |
| 20260504180438 | 21 | 268 | 16.1 | 24.1 | 0.00 | 0.00 | 0.00 | 25 | 1008.1 |
| 20260504175936 | 21 | 263 | 12.9 | 22.5 | 0.00 | 0.00 | 0.00 | 25 | 1008.1 |
| 20260504175432 | 21 | 258 | 16.1 | 27.4 | 0.00 | 0.00 | 0.00 | 25 | 1008.1 |
| 20260504174930 | 21 | 249 | 9.7 | 22.5 | 0.00 | 0.00 | 0.00 | 26 | 1008.4 |
| 20260504174428 | 21 | 239 | 8.0 | 22.5 | 0.00 | 0.00 | 0.00 | 25 | 1008.4 |
| 20260504173925 | 21 | 229 | 9.7 | 19.3 | 0.00 | 0.00 | 0.00 | 24 | 1008.7 |
| 20260504173421 | 21 | 244 | 12.9 | 22.5 | 0.00 | 0.00 | 0.00 | 25 | 1008.4 |
| 20260504172919 | 21 | 240 | 8.0 | 24.1 | 0.00 | 0.00 | 0.00 | 24 | 1008.4 |
| 20260504172414 | 21 | 262 | 12.9 | 20.9 | 0.00 | 0.00 | 0.00 | 25 | 1008.7 |
| 20260504171911 | 21 | 257 | 9.7 | 16.1 | 0.00 | 0.00 | 0.00 | 24 | 1008.8 |
| 20260504171408 | 21 | 255 | 9.7 | 22.5 | 0.00 | 0.00 | 0.00 | 24 | 1008.6 |
| 20260504170905 | 21 | 260 | 8.0 | 20.9 | 0.00 | 0.00 | 0.00 | 24 | 1008.8 |
| 20260504170402 | 21 | 235 | 6.4 | 14.5 | 0.00 | 0.00 | 0.00 | 25 | 1008.7 |
| 20260504160320 | 18 | 224 | 4.8 | 4.8 | 0.00 | 0.00 | 0.00 | 30 | 1009.1 |
| 20260504150745 | 14 | 195 | 4.8 | 4.8 | 0.00 | 0.00 | 0.00 | 36 | 1009.2 |
| 20260504150242 | 13 | 244 | 1.6 | 4.8 | 0.00 | 0.00 | 0.00 | 39 | 1009.4 |
| 20260504141212 | 9 | 250 | 0.0 | 4.8 | 0.00 | 0.00 | 0.00 | 50 | 1009.8 |
| 20260504140708 | 10 | 194 | 3.2 | 3.2 | 0.00 | 0.00 | 0.00 | 50 | 1009.6 |
| 20260504140203 | 10 | 122 | 3.2 | 3.2 | 0.00 | 0.00 | 0.00 | 47 | 1009.5 |
| 20260504130632 | 7 | 132 | 0.0 | 3.2 | 0.00 | 0.00 | 0.00 | 53 | 1009.6 |
| 20260504130129 | 7 | 251 | 1.6 | 3.2 | 0.00 | 0.00 | 0.00 | 54 | 1009.6 |
| 20260504110520 | 5 | 249 | 0.0 | 1.6 | 0.00 | 0.00 | 0.00 | 62 | 1010.0 |
| 20260504100436 | 7 | 239 | 3.2 | 4.8 | 0.00 | 0.00 | 0.00 | 54 | 1010.1 |
| 20260504081830 | 11 | 57 | 4.8 | 8.0 | 0.00 | 0.00 | 0.00 | 44 | 1010.8 |
| 20260504081326 | 11 | 54 | 6.4 | 8.0 | 0.00 | 0.00 | 0.00 | 44 | 1010.6 |
| 20260504080822 | 10 | 59 | 4.8 | 9.7 | 0.00 | 0.00 | 0.00 | 46 | 1011.0 |
| 20260504080320 | 10 | 147 | 1.6 | 6.4 | 0.00 | 0.00 | 0.00 | 46 | 1010.9 |
| 20260504070246 | 11 | 28 | 3.2 | 9.7 | 0.00 | 0.00 | 0.00 | 45 | 1011.3 |
| 20260504060207 | 11 | 10 | 1.6 | 4.8 | 0.00 | 0.00 | 0.00 | 42 | 1011.7 |
| 20260504050635 | 12 | 251 | 4.8 | 9.7 | 0.00 | 0.00 | 0.00 | 40 | 1011.7 |
| 20260504050132 | 12 | 224 | 6.4 | 9.7 | 0.00 | 0.00 | 0.00 | 39 | 1011.6 |
| 20260504045629 | 13 | 74 | 8.0 | 12.9 | 0.00 | 0.00 | 0.00 | 38 | 1011.3 |
| 20260504045123 | 13 | 67 | 9.7 | 9.7 | 0.00 | 0.00 | 0.00 | 38 | 1011.3 |
| 20260504044622 | 13 | 54 | 6.4 | 12.9 | 0.00 | 0.00 | 0.00 | 36 | 1011.1 |
| 20260504044118 | 13 | 85 | 6.4 | 14.5 | 0.00 | 0.00 | 0.00 | 36 | 1011.3 |
| 20260504043615 | 14 | 52 | 4.8 | 17.7 | 0.00 | 0.00 | 0.00 | 35 | 1011.4 |
| 20260504043113 | 15 | 78 | 8.0 | 22.5 | 0.00 | 0.00 | 0.00 | 34 | 1011.0 |
| 20260504042610 | 15 | 68 | 12.9 | 24.1 | 0.00 | 0.00 | 0.00 | 34 | 1011.6 |
| 20260504042107 | 15 | 53 | 9.7 | 22.5 | 0.00 | 0.00 | 0.00 | 34 | 1011.5 |
| 20260504041602 | 15 | 84 | 8.0 | 19.3 | 0.00 | 0.00 | 0.00 | 34 | 1011.4 |
| 20260504041059 | 15 | 58 | 6.4 | 24.1 | 0.00 | 0.00 | 0.00 | 32 | 1011.7 |
| 20260504040556 | 15 | 58 | 12.9 | 19.3 | 0.00 | 0.00 | 0.00 | 32 | 1011.7 |
| 20260504040053 | 16 | 66 | 11.3 | 12.9 | 0.00 | 0.00 | 0.00 | 30 | 1011.4 |
| 20260504035549 | 16 | 45 | 11.3 | 17.7 | 0.00 | 0.00 | 0.00 | 29 | 1011.4 |
| 20260504035046 | 17 | 18 | 9.7 | 11.3 | 0.00 | 0.00 | 0.00 | 27 | 1011.5 |
| 20260504034544 | 16 | 25 | 8.0 | 11.3 | 0.00 | 0.00 | 0.00 | 28 | 1011.6 |
| 20260504034040 | 16 | 58 | 4.8 | 8.0 | 0.00 | 0.00 | 0.00 | 28 | 1011.5 |
| 20260504033538 | 16 | 69 | 3.2 | 8.0 | 0.00 | 0.00 | 0.00 | 31 | 1011.5 |
| 20260504033035 | 16 | 11 | 0.0 | 3.2 | 0.00 | 0.00 | 0.00 | 30 | 1011.1 |
| 20260504032532 | 16 | 269 | 0.0 | 0.0 | 0.00 | 0.00 | 0.00 | 29 | 1010.8 |
| 20260504032029 | 16 | 235 | 0.0 | 0.0 | 0.00 | 0.00 | 0.00 | 29 | 1011.0 |
| 20260504031526 | 16 | 235 | 0.0 | 3.2 | 0.00 | 0.00 | 0.00 | 29 | 1010.9 |
| 20260504031022 | 16 | 103 | 0.0 | 0.0 | 0.00 | 0.00 | 0.00 | 30 | 1010.9 |
| 20260504030520 | 16 | 37 | 0.0 | 1.6 | 0.00 | 0.00 | 0.00 | 30 | 1010.9 |
| 20260504030016 | 16 | 89 | 0.0 | 0.0 | 0.00 | 0.00 | 0.00 | 30 | 1010.9 |
| 20260504025513 | 16 | 6 | 0.0 | 0.0 | 0.00 | 0.00 | 0.00 | 30 | 1011.0 |
| 20260504025009 | 16 | 130 | 0.0 | 0.0 | 0.00 | 0.00 | 0.00 | 30 | 1010.9 |
| 20260504024507 | 17 | 129 | 0.0 | 0.0 | 0.00 | 0.00 | 0.00 | 29 | 1010.8 |
| 20260504024004 | 17 | 240 | 0.0 | 1.6 | 0.00 | 0.00 | 0.00 | 28 | 1010.9 |
| 20260504023500 | 17 | 154 | 0.0 | 1.6 | 0.00 | 0.00 | 0.00 | 28 | 1010.8 |
| 20260504022956 | 17 | 229 | 0.0 | 3.2 | 0.00 | 0.00 | 0.00 | 28 | 1010.9 |
| 20260504022452 | 17 | 350 | 0.0 | 3.2 | 0.00 | 0.00 | 0.00 | 27 | 1011.0 |
| 20260504021949 | 18 | 186 | 3.2 | 3.2 | 0.00 | 0.00 | 0.00 | 27 | 1010.9 |
| 20260504021446 | 18 | 203 | 3.2 | 3.2 | 0.00 | 0.00 | 0.00 | 26 | 1010.9 |
| 20260504020943 | 18 | 237 | 1.6 | 3.2 | 0.00 | 0.00 | 0.00 | 26 | 1010.8 |
| 20260504020440 | 18 | 258 | 4.8 | 6.4 | 0.00 | 0.00 | 0.00 | 26 | 1010.8 |
| 20260504015937 | 19 | 230 | 1.6 | 6.4 | 0.00 | 0.00 | 0.00 | 26 | 1010.7 |
| 20260504015432 | 19 | 245 | 3.2 | 6.4 | 0.00 | 0.00 | 0.00 | 25 | 1010.8 |
| 20260504014928 | 19 | 246 | 4.8 | 6.4 | 0.00 | 0.00 | 0.00 | 25 | 1010.7 |
| 20260504014425 | 19 | 245 | 4.8 | 8.0 | 0.00 | 0.00 | 0.00 | 24 | 1010.8 |
| 20260504013922 | 20 | 239 | 1.6 | 6.4 | 0.00 | 0.00 | 0.00 | 25 | 1010.8 |
| 20260504013421 | 20 | 257 | 6.4 | 9.7 | 0.00 | 0.00 | 0.00 | 23 | 1011.1 |
| 20260504012916 | 20 | 202 | 0.0 | 11.3 | 0.00 | 0.00 | 0.00 | 23 | 1010.8 |
| 20260504012414 | 20 | 206 | 3.2 | 4.8 | 0.00 | 0.00 | 0.00 | 23 | 1010.9 |
| 20260504011911 | 20 | 206 | 4.8 | 4.8 | 0.00 | 0.00 | 0.00 | 23 | 1010.9 |
| 20260504011408 | 20 | 277 | 3.2 | 4.8 | 0.00 | 0.00 | 0.00 | 23 | 1010.8 |
| 20260504010904 | 20 | 252 | 0.0 | 6.4 | 0.00 | 0.00 | 0.00 | 23 | 1010.8 |
| 20260504010400 | 20 | 219 | 4.8 | 4.8 | 0.00 | 0.00 | 0.00 | 23 | 1010.7 |
| 20260504005856 | 20 | 213 | 6.4 | 8.0 | 0.00 | 0.00 | 0.00 | 22 | 1010.8 |
| 20260504005353 | 20 | 223 | 4.8 | 6.4 | 0.00 | 0.00 | 0.00 | 22 | 1010.7 |
| 20260504004851 | 20 | 225 | 3.2 | 4.8 | 0.00 | 0.00 | 0.00 | 23 | 1010.9 |